No identification:

 

1999 KQ6 

Epoch 1999 Aug. 10.0 TT = JDT 2451400.5                 Nakano

M  16.86195              (2000.0)            P               Q

n   0.22736295     Peri.  111.38418     -0.42796017     +0.89316654

a   2.6586199      Node   132.50349     -0.88304334     -0.38062984

e   0.4125796      Incl.   10.80566     -0.19257347     -0.23952968

P   4.33           H   16.6           G   0.15           U   5

Residuals in seconds of arc 

J995N  699  0.3-  1.5+    J995Q  711  1.5-  0.8-    J996A  704  0.4+  0.2-  

J995N  699  0.2+  1.2+    J995Q  658  0.4+  0.8+    J996A  704  0.1+  0.1-  

J995N  699  0.6+  0.7+    J995Q  711  0.1-  0.2-    J996A  704  0.2+  0.9-  

J995O  557  0.2+  0.2-    J995Q  658  0.2-  0.4+    J996A  704  0.6+  0.1-  

J995O  557  0.3-  0.4-    J995Q  557  0.1+  0.5-    J996A  704  0.1-  0.6-  

J995O  046  0.2-  0.2-    J995Q  595  1.4-  0.4-    J996A  704  0.4-  0.2-  

J995O  046  0.6+  0.4+    J995Q  557  0.5+  0.9+    J996B  071  0.2-  0.1-  

J995O  046  0.3-  0.5+    J995Q  557  0.7+  1.1+    J996B  071  0.1-  0.1-  

J995O  620  0.9+  0.0     J995Q  595  0.1-  1.3-    J996C  071  0.3+  0.2+  

J995O  046  0.5+  0.3+    J995R  046  0.3-  0.4+    J996C  071  0.2+  0.3-  

J995O  120  1.9+  0.8+    J995R  046  0.7+  0.2+    J996C  704  0.6+  0.0   

J995O  120  0.4+  0.1-    J995R  046  0.2-  0.2+    J996C  704  0.0   1.0-  

J995O  120  1.1-  0.2+    J995R  046  0.4-  0.1+    J996C  704  0.3-  0.2+  

J995O  620  0.5+  0.0     J995R  046  0.3-  0.3+    J996C  704  0.1-  0.1+  

J995O  120  0.2-  0.6-    J995R  711  0.0   0.3-    J996E  704  0.3-  0.0   

J995O  620  0.0   0.1-    J995R  711  0.1+  0.4-    J996E  704  0.1-  0.3+  

J995P  860  0.6-  1.2-    J995R  711  0.1+  0.3-    J996E  704  0.6-  0.0   

J995P  860  0.3-  0.9-    J9961  118  0.0   0.5+    J996E  704  0.2-  0.3+  

J995P  860  1.5-  1.2-    J9962  118  0.1+  0.3-    J996E  704  0.0   0.7-  

J995P  426  0.0   0.0     J9965  108 (2.4+  1.4-)   J996F  071  0.3-  0.0   

J995P  426  0.2+  0.6+    J9965  108 (3.5+  5.0+)   J996F  071  0.5-  1.4+  

J995P  426  0.6+  0.5+    J9965  108 (2.0-  0.1-)   J996H  118  1.1+  0.0   

J995P  426  0.2+  0.3+    J9968  704  0.0   0.3-    J996H  118  0.4+  0.3+  

J995P  118  0.6+  1.0-    J9968  704  0.4+  0.1-    J996H  071  0.7-  1.5+  

J995P  595  0.7+  1.0-    J9968  704  0.4-  0.9+    J996H  071 (0.0   2.5+) 

J995P  118  0.3-  0.3-    J9968  704  0.2-  0.6+    J996H  071 (1.6+  2.2-) 

J995P  595  0.4+  0.2-    J9968  704  0.3+  0.1-    J9978  587  1.1+  0.7+  

J995P  118  1.1-  0.5-    J996A  704  0.1-  0.2-    J9978  587  1.2-  0.8-  

J995P  595 (0.2-  2.6-)   J996A  704  0.0   0.5-    J9979  402  0.8+  0.7-  

J995Q  711  1.5-  0.7-    J996A  704  0.4-  0.1-    J9979  402  0.7-  0.1-  

J995Q  658  1.0+  1.3+    J996A  704  0.2+  0.1-    J9979  402  0.3+  0.6+  

–ß‚è‚Ü‚·B